User: anonymous   Login
Location: Unspecified
(0.0000°N, 0.0000°E)
Time: 07:45:13
(UTC+00:00)
Language:

FORMOSAT7-1/COSMIC2-1 - Orbit

View from above orbital plane
View from above orbital plane
View from above satellite
View from above satellite

Ground track
Ground track

The orbit is defined by the following mean orbital elements,

1 44349U          26145.44246249 +.00000000 +00000-0 +15250-3 0 00006
2 44349  23.9963 185.7208 0000395 265.4255  94.6200 14.96394460    02
Epoch (UTC): 25 May 2026 10:37:08
Eccentricity: 0.0000395
inclination: 23.9963°
perigee height: 578 km
apogee height: 578 km
right ascension of ascending node: 185.7208°
argument of perigee: 265.4255°
revolutions per day: 14.96394460
mean anomaly at epoch: 94.6200°

The dashed part of the orbit path shows where the satellite is in the earth's shadow,  

DLR